contact:dominique.lefevre@mio.osupytheas.fr, maurice.libes@osupytheas.fr, didier.mallarino@osupytheas.fr
Project:EMSO http://www.emso-fr.org/EMSO-France
Depth: 2436.0 m
Title:EMSO Ligure Ouest : Data MII capteur MICROCAT
DateTime_Computer,Latitude,Longitude,Temperature,Conductivity,Pressure,DateTime_Instrument
DateTime_Computer,Latitude,Longitude,degC,S m-1,dbar,DateTime_Instrument
2021-08-12T00:00:32Z,42.805,6.029,13.2992,4.60001,2470.497,2021-8-12T02:01:50Z
2021-08-12T00:03:35Z,42.805,6.029,13.2988,4.59999,2470.483,2021-8-12T02:04:53Z
2021-08-12T00:06:38Z,42.805,6.029,13.2990,4.59999,2470.52,2021-8-12T02:07:57Z
2021-08-12T00:09:41Z,42.805,6.029,13.2986,4.60006,2470.497,2021-8-12T02:11:00Z
2021-08-12T00:12:45Z,42.805,6.029,13.2988,4.60001,2470.46,2021-8-12T02:14:03Z
2021-08-12T00:15:48Z,42.805,6.029,13.2988,4.59999,2470.474,2021-8-12T02:17:06Z
2021-08-12T00:18:51Z,42.805,6.029,13.2986,4.59999,2470.46,2021-8-12T02:20:09Z
2021-08-12T00:21:54Z,42.805,6.029,13.2984,4.59999,2470.483,2021-8-12T02:23:12Z
2021-08-12T00:24:57Z,42.805,6.029,13.2986,4.59999,2470.483,2021-8-12T02:26:15Z
2021-08-12T00:28:00Z,42.805,6.029,13.2987,4.59998,2470.483,2021-8-12T02:29:18Z
2021-08-12T00:31:03Z,42.805,6.029,13.2988,4.60000,2470.483,2021-8-12T02:32:22Z
2021-08-12T00:34:06Z,42.805,6.029,13.2991,4.59998,2470.483,2021-8-12T02:35:25Z
2021-08-12T00:37:10Z,42.805,6.029,13.2986,4.59997,2470.474,2021-8-12T02:38:28Z
2021-08-12T00:40:13Z,42.805,6.029,13.2986,4.59998,2470.437,2021-8-12T02:41:31Z
2021-08-12T00:43:16Z,42.805,6.029,13.2988,4.60000,2470.45,2021-8-12T02:44:34Z
2021-08-12T00:46:19Z,42.805,6.029,13.2991,4.60000,2470.474,2021-8-12T02:47:37Z
2021-08-12T00:49:22Z,42.805,6.029,13.2986,4.60006,2470.437,2021-8-12T02:50:40Z
2021-08-12T00:52:25Z,42.805,6.029,13.2989,4.60003,2470.437,2021-8-12T02:53:43Z
2021-08-12T00:55:28Z,42.805,6.029,13.2988,4.60001,2470.46,2021-8-12T02:56:47Z
2021-08-12T00:58:31Z,42.805,6.029,13.2990,4.59999,2470.45,2021-8-12T02:59:50Z
2021-08-12T01:01:35Z,42.805,6.029,13.2991,4.60001,2470.474,2021-8-12T03:02:53Z
2021-08-12T01:04:38Z,42.805,6.029,13.2991,4.59999,2470.474,2021-8-12T03:05:56Z
2021-08-12T01:07:41Z,42.805,6.029,13.2989,4.60000,2470.413,2021-8-12T03:08:59Z
2021-08-12T01:10:44Z,42.805,6.029,13.2985,4.59998,2470.437,2021-8-12T03:12:02Z
2021-08-12T01:13:47Z,42.805,6.029,13.2987,4.59999,2470.437,2021-8-12T03:15:05Z
2021-08-12T01:16:50Z,42.805,6.029,13.2986,4.60001,2470.45,2021-8-12T03:18:08Z
2021-08-12T01:19:53Z,42.805,6.029,13.2987,4.59999,2470.46,2021-8-12T03:21:11Z
2021-08-12T01:22:56Z,42.805,6.029,13.2989,4.59999,2470.413,2021-8-12T03:24:15Z
2021-08-12T01:26:00Z,42.805,6.029,13.2984,4.59998,2470.39,2021-8-12T03:27:18Z
2021-08-12T01:29:03Z,42.805,6.029,13.2988,4.60002,2470.427,2021-8-12T03:30:21Z
2021-08-12T01:32:06Z,42.805,6.029,13.2986,4.59999,2470.427,2021-8-12T03:33:24Z
2021-08-12T01:35:09Z,42.805,6.029,13.2984,4.59996,2470.39,2021-8-12T03:36:27Z
2021-08-12T01:38:12Z,42.805,6.029,13.2991,4.59999,2470.427,2021-8-12T03:39:30Z
2021-08-12T01:41:15Z,42.805,6.029,13.2991,4.59998,2470.45,2021-8-12T03:42:33Z
2021-08-12T01:44:18Z,42.805,6.029,13.2987,4.59999,2470.413,2021-8-12T03:45:36Z
2021-08-12T01:47:21Z,42.805,6.029,13.2987,4.59997,2470.413,2021-8-12T03:48:40Z
2021-08-12T01:50:25Z,42.805,6.029,13.2987,4.59999,2470.39,2021-8-12T03:51:43Z
2021-08-12T01:53:28Z,42.805,6.029,13.2988,4.60001,2470.437,2021-8-12T03:54:46Z
2021-08-12T01:56:31Z,42.805,6.029,13.2988,4.59997,2470.427,2021-8-12T03:57:49Z
2021-08-12T01:59:34Z,42.805,6.029,13.2986,4.59997,2470.404,2021-8-12T04:00:52Z
2021-08-12T02:02:37Z,42.805,6.029,13.2987,4.59999,2470.427,2021-8-12T04:03:55Z
2021-08-12T02:05:40Z,42.805,6.029,13.2991,4.59997,2470.39,2021-8-12T04:06:58Z
2021-08-12T02:08:43Z,42.805,6.029,13.2989,4.60003,2470.39,2021-8-12T04:10:01Z
2021-08-12T02:11:46Z,42.805,6.029,13.2994,4.59999,2470.366,2021-8-12T04:13:05Z
2021-08-12T02:14:50Z,42.805,6.029,13.2988,4.59998,2470.404,2021-8-12T04:16:08Z
2021-08-12T02:17:53Z,42.805,6.029,13.2984,4.59998,2470.427,2021-8-12T04:19:11Z
2021-08-12T02:20:56Z,42.805,6.029,13.2986,4.59998,2470.413,2021-8-12T04:22:14Z
2021-08-12T02:23:59Z,42.805,6.029,13.2984,4.59998,2470.39,2021-8-12T04:25:17Z
2021-08-12T02:27:02Z,42.805,6.029,13.2990,4.59997,2470.38,2021-8-12T04:28:20Z
2021-08-12T02:30:05Z,42.805,6.029,13.2987,4.59999,2470.39,2021-8-12T04:31:23Z
2021-08-12T02:33:08Z,42.805,6.029,13.2990,4.60000,2470.413,2021-8-12T04:34:26Z
2021-08-12T02:36:11Z,42.805,6.029,13.2990,4.59997,2470.39,2021-8-12T04:37:30Z
2021-08-12T02:39:15Z,42.805,6.029,13.2984,4.59998,2470.38,2021-8-12T04:40:33Z
2021-08-12T02:42:18Z,42.805,6.029,13.2987,4.59998,2470.357,2021-8-12T04:43:36Z
2021-08-12T02:45:21Z,42.805,6.029,13.2986,4.59999,2470.38,2021-8-12T04:46:39Z
2021-08-12T02:48:24Z,42.805,6.029,13.2985,4.60010,2470.366,2021-8-12T04:49:42Z
2021-08-12T02:51:27Z,42.805,6.029,13.2989,4.60006,2470.366,2021-8-12T04:52:45Z
2021-08-12T02:54:30Z,42.805,6.029,13.2990,4.59999,2470.357,2021-8-12T04:55:48Z
2021-08-12T02:57:33Z,42.805,6.029,13.2986,4.60000,2470.38,2021-8-12T04:58:51Z
2021-08-12T03:00:36Z,42.805,6.029,13.2986,4.59999,2470.404,2021-8-12T05:01:55Z
2021-08-12T03:03:39Z,42.805,6.029,13.2985,4.60015,2470.343,2021-8-12T05:04:58Z
2021-08-12T03:06:43Z,42.805,6.029,13.2987,4.60006,2470.343,2021-8-12T05:08:01Z
2021-08-12T03:09:46Z,42.805,6.029,13.2989,4.60014,2470.343,2021-8-12T05:11:04Z
2021-08-12T03:12:49Z,42.805,6.029,13.2987,4.60002,2470.366,2021-8-12T05:14:07Z
2021-08-12T03:15:52Z,42.805,6.029,13.2988,4.59999,2470.343,2021-8-12T05:17:10Z
2021-08-12T03:18:55Z,42.805,6.029,13.2986,4.59998,2470.343,2021-8-12T05:20:13Z
2021-08-12T03:21:58Z,42.805,6.029,13.2991,4.59999,2470.32,2021-8-12T05:23:16Z
2021-08-12T03:25:01Z,42.805,6.029,13.2990,4.59999,2470.334,2021-8-12T05:26:20Z
2021-08-12T03:28:04Z,42.805,6.029,13.2988,4.59997,2470.38,2021-8-12T05:29:23Z
2021-08-12T03:31:08Z,42.805,6.029,13.2986,4.59999,2470.357,2021-8-12T05:32:26Z
2021-08-12T03:34:11Z,42.805,6.029,13.2986,4.59999,2470.343,2021-8-12T05:35:29Z
2021-08-12T03:37:14Z,42.805,6.029,13.2991,4.59999,2470.357,2021-8-12T05:38:32Z
2021-08-12T03:40:17Z,42.805,6.029,13.2989,4.59999,2470.343,2021-8-12T05:41:35Z
2021-08-12T03:43:20Z,42.805,6.029,13.2986,4.60005,2470.357,2021-8-12T05:44:38Z
2021-08-12T03:46:23Z,42.805,6.029,13.2988,4.60012,2470.404,2021-8-12T05:47:41Z
2021-08-12T03:49:26Z,42.805,6.029,13.2986,4.60009,2470.357,2021-8-12T05:50:45Z
2021-08-12T03:52:29Z,42.805,6.029,13.2988,4.60003,2470.343,2021-8-12T05:53:48Z
2021-08-12T03:55:33Z,42.805,6.029,13.2990,4.59999,2470.343,2021-8-12T05:56:51Z
2021-08-12T03:58:36Z,42.805,6.029,13.2984,4.60003,2470.343,2021-8-12T05:59:54Z
2021-08-12T04:01:39Z,42.805,6.029,13.2986,4.60001,2470.343,2021-8-12T06:02:57Z
2021-08-12T04:04:42Z,42.805,6.029,13.2986,4.60006,2470.357,2021-8-12T06:06:00Z
2021-08-12T04:07:45Z,42.805,6.029,13.2991,4.60002,2470.334,2021-8-12T06:09:03Z
2021-08-12T04:10:48Z,42.805,6.029,13.2986,4.60008,2470.32,2021-8-12T06:12:06Z
2021-08-12T04:13:51Z,42.805,6.029,13.2990,4.60016,2470.343,2021-8-12T06:15:10Z
2021-08-12T04:16:54Z,42.805,6.029,13.2989,4.60000,2470.366,2021-8-12T06:18:13Z
2021-08-12T04:19:58Z,42.805,6.029,13.2989,4.60005,2470.343,2021-8-12T06:21:16Z
2021-08-12T04:23:01Z,42.805,6.029,13.2990,4.60007,2470.297,2021-8-12T06:24:19Z
2021-08-12T04:26:04Z,42.805,6.029,13.2989,4.60003,2470.32,2021-8-12T06:27:22Z
2021-08-12T04:29:07Z,42.805,6.029,13.2989,4.60000,2470.283,2021-8-12T06:30:25Z
2021-08-12T04:32:10Z,42.805,6.029,13.2989,4.59998,2470.32,2021-8-12T06:33:28Z
2021-08-12T04:35:13Z,42.805,6.029,13.2987,4.60001,2470.38,2021-8-12T06:36:31Z
2021-08-12T04:38:16Z,42.805,6.029,13.2988,4.60004,2470.366,2021-8-12T06:39:35Z
2021-08-12T04:41:19Z,42.805,6.029,13.2986,4.60011,2470.32,2021-8-12T06:42:38Z
2021-08-12T04:44:23Z,42.805,6.029,13.2990,4.60001,2470.357,2021-8-12T06:45:41Z
2021-08-12T04:47:26Z,42.805,6.029,13.2986,4.60023,2470.334,2021-8-12T06:48:44Z
2021-08-12T04:50:29Z,42.805,6.029,13.2996,4.60015,2470.334,2021-8-12T06:51:47Z
2021-08-12T04:53:32Z,42.805,6.029,13.2997,4.60012,2470.32,2021-8-12T06:54:50Z
2021-08-12T04:56:35Z,42.805,6.029,13.2994,4.60031,2470.32,2021-8-12T06:57:53Z
2021-08-12T04:59:38Z,42.805,6.029,13.2996,4.60016,2470.343,2021-8-12T07:00:56Z
2021-08-12T05:02:41Z,42.805,6.029,13.3005,4.60014,2470.334,2021-8-12T07:04:00Z
2021-08-12T05:05:44Z,42.805,6.029,13.3004,4.60044,2470.32,2021-8-12T07:07:03Z
2021-08-12T05:08:48Z,42.805,6.029,13.3007,4.60015,2470.38,2021-8-12T07:10:06Z
2021-08-12T05:11:51Z,42.805,6.029,13.3014,4.60033,2470.343,2021-8-12T07:13:09Z
2021-08-12T05:14:54Z,42.805,6.029,13.3006,4.60034,2470.334,2021-8-12T07:16:12Z
2021-08-12T05:17:57Z,42.805,6.029,13.2996,4.60042,2470.32,2021-8-12T07:19:15Z
2021-08-12T05:21:00Z,42.805,6.029,13.3006,4.60038,2470.38,2021-8-12T07:22:18Z
2021-08-12T05:24:03Z,42.805,6.029,13.3002,4.60089,2470.357,2021-8-12T07:25:21Z
2021-08-12T05:27:06Z,42.805,6.029,13.3015,4.60040,2470.366,2021-8-12T07:28:24Z
2021-08-12T05:30:09Z,42.805,6.029,13.3000,4.60046,2470.32,2021-8-12T07:31:28Z
2021-08-12T05:33:13Z,42.805,6.029,13.3007,4.60062,2470.357,2021-8-12T07:34:31Z
2021-08-12T05:36:16Z,42.805,6.029,13.3021,4.60076,2470.334,2021-8-12T07:37:34Z
2021-08-12T05:39:19Z,42.805,6.029,13.3024,4.60072,2470.31,2021-8-12T07:40:37Z
2021-08-12T05:42:22Z,42.805,6.029,13.3032,4.60049,2470.38,2021-8-12T07:43:40Z
2021-08-12T05:45:25Z,42.805,6.029,13.3041,4.60059,2470.32,2021-8-12T07:46:43Z
2021-08-12T05:48:28Z,42.805,6.029,13.3054,4.60043,2470.357,2021-8-12T07:49:46Z
2021-08-12T05:51:31Z,42.805,6.029,13.3055,4.60051,2470.357,2021-8-12T07:52:50Z
2021-08-12T05:54:34Z,42.805,6.029,13.3053,4.60087,2470.357,2021-8-12T07:55:53Z
2021-08-12T05:57:38Z,42.805,6.029,13.3054,4.60059,2470.357,2021-8-12T07:58:56Z
2021-08-12T06:00:41Z,42.805,6.029,13.3046,4.60069,2470.38,2021-8-12T08:01:59Z
2021-08-12T06:03:44Z,42.805,6.029,13.3056,4.60079,2470.38,2021-8-12T08:05:02Z
2021-08-12T06:06:47Z,42.805,6.029,13.3053,4.60060,2470.404,2021-8-12T08:08:05Z
2021-08-12T06:09:50Z,42.805,6.029,13.3067,4.60046,2470.38,2021-8-12T08:11:08Z
2021-08-12T06:12:53Z,42.805,6.029,13.3063,4.60049,2470.357,2021-8-12T08:14:11Z
2021-08-12T06:15:56Z,42.805,6.029,13.3080,4.60042,2470.38,2021-8-12T08:17:14Z
2021-08-12T06:18:59Z,42.805,6.029,13.3063,4.60060,2470.413,2021-8-12T08:20:18Z
2021-08-12T06:22:03Z,42.805,6.029,13.3055,4.60037,2470.404,2021-8-12T08:23:21Z
2021-08-12T06:25:06Z,42.805,6.029,13.2990,4.60016,2470.38,2021-8-12T08:26:24Z
2021-08-12T06:28:09Z,42.805,6.029,13.3005,4.60035,2470.404,2021-8-12T08:29:27Z
2021-08-12T06:31:12Z,42.805,6.029,13.2990,4.60060,2470.366,2021-8-12T08:32:30Z
2021-08-12T06:34:15Z,42.805,6.029,13.2987,4.60049,2470.357,2021-8-12T08:35:33Z
2021-08-12T06:37:18Z,42.805,6.029,13.2986,4.60044,2470.404,2021-8-12T08:38:36Z
2021-08-12T06:40:21Z,42.805,6.029,13.2987,4.60049,2470.38,2021-8-12T08:41:39Z
2021-08-12T06:43:24Z,42.805,6.029,13.2986,4.60077,2470.404,2021-8-12T08:44:43Z
2021-08-12T06:46:28Z,42.805,6.029,13.2988,4.60072,2470.39,2021-8-12T08:47:46Z
2021-08-12T06:49:31Z,42.805,6.029,13.2989,4.60064,2470.404,2021-8-12T08:50:49Z
2021-08-12T06:52:34Z,42.805,6.029,13.2990,4.60062,2470.404,2021-8-12T08:53:52Z
2021-08-12T06:55:37Z,42.805,6.029,13.2985,4.60106,2470.38,2021-8-12T08:56:55Z
2021-08-12T06:58:40Z,42.805,6.029,13.2989,4.60073,2470.39,2021-8-12T08:59:58Z
2021-08-12T07:01:43Z,42.805,6.029,13.2991,4.60072,2470.413,2021-8-12T09:03:01Z
2021-08-12T07:04:46Z,42.805,6.029,13.3009,4.60056,2470.404,2021-8-12T09:06:04Z
2021-08-12T07:07:49Z,42.805,6.029,13.3049,4.60055,2470.39,2021-8-12T09:09:08Z
2021-08-12T07:10:52Z,42.805,6.029,13.3031,4.60059,2470.404,2021-8-12T09:12:11Z
2021-08-12T07:13:56Z,42.805,6.029,13.3000,4.60095,2470.437,2021-8-12T09:15:14Z
2021-08-12T07:16:59Z,42.805,6.029,13.3047,4.60076,2470.437,2021-8-12T09:18:17Z
2021-08-12T07:20:02Z,42.805,6.029,13.3053,4.60054,2470.39,2021-8-12T09:21:20Z
2021-08-12T07:23:05Z,42.805,6.029,13.3063,4.60040,2470.427,2021-8-12T09:24:23Z
2021-08-12T07:26:08Z,42.805,6.029,13.3047,4.60050,2470.413,2021-8-12T09:27:26Z
2021-08-12T07:29:11Z,42.805,6.029,13.3048,4.60038,2470.45,2021-8-12T09:30:29Z
2021-08-12T07:32:14Z,42.805,6.029,13.3045,4.60041,2470.474,2021-8-12T09:33:33Z
2021-08-12T07:35:17Z,42.805,6.029,13.3042,4.60046,2470.437,2021-8-12T09:36:36Z
2021-08-12T07:38:21Z,42.805,6.029,13.3041,4.60054,2470.474,2021-8-12T09:39:39Z
2021-08-12T07:41:24Z,42.805,6.029,13.3027,4.60053,2470.45,2021-8-12T09:42:42Z
2021-08-12T07:44:27Z,42.805,6.029,13.3034,4.60062,2470.45,2021-8-12T09:45:45Z
2021-08-12T07:47:30Z,42.805,6.029,13.3032,4.60059,2470.45,2021-8-12T09:48:48Z
2021-08-12T07:50:33Z,42.805,6.029,13.3040,4.60043,2470.437,2021-8-12T09:51:51Z
2021-08-12T07:53:36Z,42.805,6.029,13.3036,4.60039,2470.46,2021-8-12T09:54:54Z
2021-08-12T07:56:39Z,42.805,6.029,13.3042,4.60038,2470.427,2021-8-12T09:57:58Z
2021-08-12T07:59:42Z,42.805,6.029,13.3044,4.60052,2470.45,2021-8-12T10:01:01Z
2021-08-12T08:02:46Z,42.805,6.029,13.3041,4.60044,2470.45,2021-8-12T10:04:04Z
2021-08-12T08:05:49Z,42.805,6.029,13.3043,4.60074,2470.427,2021-8-12T10:07:07Z
2021-08-12T08:08:52Z,42.805,6.029,13.3061,4.60055,2470.427,2021-8-12T10:10:10Z
2021-08-12T08:11:55Z,42.805,6.029,13.3036,4.60049,2470.46,2021-8-12T10:13:13Z
2021-08-12T08:14:58Z,42.805,6.029,13.3037,4.60044,2470.483,2021-8-12T10:16:16Z
2021-08-12T08:18:01Z,42.805,6.029,13.3045,4.60037,2470.45,2021-8-12T10:19:19Z
2021-08-12T08:21:04Z,42.805,6.029,13.3058,4.60045,2470.437,2021-8-12T10:22:23Z
2021-08-12T08:24:08Z,42.805,6.029,13.3031,4.60050,2470.437,2021-8-12T10:25:26Z
2021-08-12T08:27:11Z,42.805,6.029,13.3038,4.60042,2470.474,2021-8-12T10:28:29Z
2021-08-12T08:30:14Z,42.805,6.029,13.3043,4.60044,2470.474,2021-8-12T10:31:32Z
2021-08-12T08:33:17Z,42.805,6.029,13.3021,4.60051,2470.474,2021-8-12T10:34:35Z
2021-08-12T08:36:20Z,42.805,6.029,13.3048,4.60043,2470.437,2021-8-12T10:37:38Z
2021-08-12T08:39:23Z,42.805,6.029,13.3049,4.60053,2470.437,2021-8-12T10:40:41Z
2021-08-12T08:42:26Z,42.805,6.029,13.3020,4.60045,2470.46,2021-8-12T10:43:44Z
2021-08-12T08:45:29Z,42.805,6.029,13.3036,4.60050,2470.52,2021-8-12T10:46:48Z
2021-08-12T08:48:33Z,42.805,6.029,13.3029,4.60034,2470.474,2021-8-12T10:49:51Z
2021-08-12T08:51:36Z,42.805,6.029,13.3034,4.60039,2470.46,2021-8-12T10:52:54Z
2021-08-12T08:54:39Z,42.805,6.029,13.3030,4.60033,2470.497,2021-8-12T10:55:57Z
2021-08-12T08:57:42Z,42.805,6.029,13.3037,4.60048,2470.474,2021-8-12T10:59:00Z
2021-08-12T09:00:45Z,42.805,6.029,13.3031,4.60029,2470.46,2021-8-12T11:02:03Z
2021-08-12T09:03:48Z,42.805,6.029,13.3041,4.60039,2470.474,2021-8-12T11:05:06Z
2021-08-12T09:06:51Z,42.805,6.029,13.3034,4.60031,2470.483,2021-8-12T11:08:09Z
2021-08-12T09:09:54Z,42.805,6.029,13.3026,4.60035,2470.497,2021-8-12T11:11:13Z
2021-08-12T09:12:58Z,42.805,6.029,13.3029,4.60029,2470.474,2021-8-12T11:14:16Z
2021-08-12T09:16:01Z,42.805,6.029,13.3095,4.60049,2470.483,2021-8-12T11:17:19Z
2021-08-12T09:19:04Z,42.805,6.029,13.3036,4.60029,2470.483,2021-8-12T11:20:22Z
2021-08-12T09:22:07Z,42.805,6.029,13.3024,4.60033,2470.483,2021-8-12T11:23:25Z
2021-08-12T09:25:10Z,42.805,6.029,13.3075,4.60052,2470.497,2021-8-12T11:26:28Z
2021-08-12T09:28:13Z,42.805,6.029,13.3024,4.60041,2470.483,2021-8-12T11:29:31Z
2021-08-12T09:31:16Z,42.805,6.029,13.3036,4.60046,2470.483,2021-8-12T11:32:35Z
2021-08-12T09:34:19Z,42.805,6.029,13.2995,4.60046,2470.52,2021-8-12T11:35:38Z
2021-08-12T09:37:23Z,42.805,6.029,13.2994,4.60034,2470.483,2021-8-12T11:38:41Z
2021-08-12T09:40:26Z,42.805,6.029,13.2991,4.60045,2470.52,2021-8-12T11:41:44Z
2021-08-12T09:43:29Z,42.805,6.029,13.2996,4.60044,2470.497,2021-8-12T11:44:47Z
2021-08-12T09:46:32Z,42.805,6.029,13.2993,4.60032,2470.497,2021-8-12T11:47:50Z
2021-08-12T09:49:35Z,42.805,6.029,13.3056,4.60045,2470.46,2021-8-12T11:50:53Z
2021-08-12T09:52:38Z,42.805,6.029,13.3065,4.60041,2470.497,2021-8-12T11:53:56Z
2021-08-12T09:55:41Z,42.805,6.029,13.3004,4.60044,2470.497,2021-8-12T11:57:00Z
2021-08-12T09:58:44Z,42.805,6.029,13.2987,4.60024,2470.507,2021-8-12T12:00:03Z
2021-08-12T10:01:48Z,42.805,6.029,13.3032,4.60029,2470.474,2021-8-12T12:03:06Z
2021-08-12T10:04:51Z,42.805,6.029,13.2990,4.60037,2470.46,2021-8-12T12:06:09Z
2021-08-12T10:07:54Z,42.805,6.029,13.2987,4.60020,2470.483,2021-8-12T12:09:12Z
2021-08-12T10:10:57Z,42.805,6.029,13.2991,4.60024,2470.474,2021-8-12T12:12:15Z
2021-08-12T10:14:00Z,42.805,6.029,13.2987,4.60027,2470.437,2021-8-12T12:15:18Z
2021-08-12T10:17:03Z,42.805,6.029,13.2992,4.60019,2470.474,2021-8-12T12:18:21Z
2021-08-12T10:20:06Z,42.805,6.029,13.2995,4.60025,2470.46,2021-8-12T12:21:25Z
2021-08-12T10:23:10Z,42.805,6.029,13.2993,4.60027,2470.45,2021-8-12T12:24:28Z
2021-08-12T10:26:13Z,42.805,6.029,13.2990,4.60022,2470.46,2021-8-12T12:27:31Z
2021-08-12T10:29:16Z,42.805,6.029,13.2989,4.60020,2470.46,2021-8-12T12:30:34Z
2021-08-12T10:32:19Z,42.805,6.029,13.2987,4.60029,2470.483,2021-8-12T12:33:37Z
2021-08-12T10:35:22Z,42.805,6.029,13.2986,4.60025,2470.437,2021-8-12T12:36:40Z
2021-08-12T10:38:25Z,42.805,6.029,13.2986,4.60022,2470.437,2021-8-12T12:39:43Z
2021-08-12T10:41:28Z,42.805,6.029,13.2985,4.60025,2470.474,2021-8-12T12:42:47Z
2021-08-12T10:44:31Z,42.805,6.029,13.2987,4.60013,2470.437,2021-8-12T12:45:50Z
2021-08-12T10:47:35Z,42.805,6.029,13.2987,4.60009,2470.46,2021-8-12T12:48:53Z
2021-08-12T10:50:38Z,42.805,6.029,13.2991,4.60015,2470.45,2021-8-12T12:51:56Z
2021-08-12T10:53:41Z,42.805,6.029,13.2987,4.60012,2470.437,2021-8-12T12:54:59Z
2021-08-12T10:56:44Z,42.805,6.029,13.2990,4.60026,2470.427,2021-8-12T12:58:02Z
2021-08-12T10:59:47Z,42.805,6.029,13.2998,4.60016,2470.437,2021-8-12T13:01:05Z
2021-08-12T11:02:50Z,42.805,6.029,13.2993,4.60044,2470.413,2021-8-12T13:04:08Z
2021-08-12T11:05:53Z,42.805,6.029,13.2986,4.60031,2470.45,2021-8-12T13:07:12Z
2021-08-12T11:08:56Z,42.805,6.029,13.2990,4.60019,2470.427,2021-8-12T13:10:15Z
2021-08-12T11:12:00Z,42.805,6.029,13.2989,4.60016,2470.45,2021-8-12T13:13:18Z
2021-08-12T11:15:03Z,42.805,6.029,13.2986,4.60012,2470.45,2021-8-12T13:16:21Z
2021-08-12T11:18:06Z,42.805,6.029,13.2986,4.60016,2470.437,2021-8-12T13:19:24Z
2021-08-12T11:21:09Z,42.805,6.029,13.2983,4.60014,2470.45,2021-8-12T13:22:27Z
2021-08-12T11:24:12Z,42.805,6.029,13.2992,4.60016,2470.45,2021-8-12T13:25:30Z
2021-08-12T11:27:15Z,42.805,6.029,13.2983,4.60018,2470.413,2021-8-12T13:28:33Z
2021-08-12T11:30:18Z,42.805,6.029,13.2987,4.60015,2470.413,2021-8-12T13:31:37Z
2021-08-12T11:33:21Z,42.805,6.029,13.2989,4.60014,2470.45,2021-8-12T13:34:40Z
2021-08-12T11:36:25Z,42.805,6.029,13.2986,4.60011,2470.413,2021-8-12T13:37:43Z
2021-08-12T11:39:28Z,42.805,6.029,13.2983,4.60008,2470.413,2021-8-12T13:40:46Z
2021-08-12T11:42:31Z,42.805,6.029,13.2984,4.60024,2470.413,2021-8-12T13:43:49Z
2021-08-12T11:45:34Z,42.805,6.029,13.2985,4.60012,2470.437,2021-8-12T13:46:52Z
2021-08-12T11:48:37Z,42.805,6.029,13.2992,4.60029,2470.413,2021-8-12T13:49:55Z
2021-08-12T11:51:40Z,42.805,6.029,13.2990,4.60022,2470.404,2021-8-12T13:52:58Z
2021-08-12T11:54:43Z,42.805,6.029,13.2988,4.60021,2470.427,2021-8-12T13:56:02Z
2021-08-12T11:57:46Z,42.805,6.029,13.2991,4.60021,2470.413,2021-8-12T13:59:05Z
2021-08-12T12:00:50Z,42.805,6.029,13.2985,4.60015,2470.437,2021-8-12T14:02:08Z
2021-08-12T12:03:53Z,42.805,6.029,13.2986,4.60009,2470.427,2021-8-12T14:05:11Z
2021-08-12T12:06:56Z,42.805,6.029,13.2987,4.60006,2470.413,2021-8-12T14:08:14Z
2021-08-12T12:09:59Z,42.805,6.029,13.2987,4.60006,2470.413,2021-8-12T14:11:17Z
2021-08-12T12:13:02Z,42.805,6.029,13.2989,4.60005,2470.404,2021-8-12T14:14:20Z
2021-08-12T12:16:05Z,42.805,6.029,13.2986,4.60005,2470.39,2021-8-12T14:17:23Z
2021-08-12T12:19:08Z,42.805,6.029,13.2990,4.60004,2470.39,2021-8-12T14:20:27Z
2021-08-12T12:22:11Z,42.805,6.029,13.2986,4.60003,2470.39,2021-8-12T14:23:30Z
2021-08-12T12:25:15Z,42.805,6.029,13.2991,4.60005,2470.39,2021-8-12T14:26:33Z
2021-08-12T12:28:18Z,42.805,6.029,13.2987,4.60003,2470.39,2021-8-12T14:29:36Z
2021-08-12T12:31:21Z,42.805,6.029,13.2988,4.60003,2470.39,2021-8-12T14:32:39Z
2021-08-12T12:34:24Z,42.805,6.029,13.2990,4.60005,2470.39,2021-8-12T14:35:42Z
2021-08-12T12:37:27Z,42.805,6.029,13.2991,4.60009,2470.343,2021-8-12T14:38:45Z
2021-08-12T12:40:30Z,42.805,6.029,13.2990,4.60006,2470.366,2021-8-12T14:41:48Z
2021-08-12T12:43:33Z,42.805,6.029,13.2987,4.60003,2470.39,2021-8-12T14:44:52Z
2021-08-12T12:46:36Z,42.805,6.029,13.2990,4.60002,2470.366,2021-8-12T14:47:55Z
2021-08-12T12:49:40Z,42.805,6.029,13.2990,4.60004,2470.366,2021-8-12T14:50:58Z
2021-08-12T12:52:43Z,42.805,6.029,13.2990,4.60002,2470.38,2021-8-12T14:54:01Z
2021-08-12T12:55:46Z,42.805,6.029,13.2988,4.60001,2470.38,2021-8-12T14:57:04Z
2021-08-12T12:58:49Z,42.805,6.029,13.2987,4.60002,2470.366,2021-8-12T15:00:07Z
2021-08-12T13:01:52Z,42.805,6.029,13.2991,4.60003,2470.39,2021-8-12T15:03:10Z
2021-08-12T13:04:55Z,42.805,6.029,13.2991,4.60003,2470.366,2021-8-12T15:06:13Z
2021-08-12T13:07:58Z,42.805,6.029,13.2987,4.60004,2470.357,2021-8-12T15:09:17Z
2021-08-12T13:11:01Z,42.805,6.029,13.2988,4.60003,2470.357,2021-8-12T15:12:20Z
2021-08-12T13:14:05Z,42.805,6.029,13.2990,4.60003,2470.38,2021-8-12T15:15:23Z
2021-08-12T13:17:08Z,42.805,6.029,13.2988,4.60002,2470.357,2021-8-12T15:18:26Z
2021-08-12T13:20:11Z,42.805,6.029,13.2986,4.60002,2470.343,2021-8-12T15:21:29Z
2021-08-12T13:23:14Z,42.805,6.029,13.2992,4.60001,2470.343,2021-8-12T15:24:32Z
2021-08-12T13:26:17Z,42.805,6.029,13.2986,4.60003,2470.366,2021-8-12T15:27:35Z
2021-08-12T13:29:20Z,42.805,6.029,13.2989,4.60005,2470.366,2021-8-12T15:30:38Z
2021-08-12T13:32:23Z,42.805,6.029,13.2990,4.60005,2470.343,2021-8-12T15:33:42Z
2021-08-12T13:35:27Z,42.805,6.029,13.2991,4.60001,2470.357,2021-8-12T15:36:45Z
2021-08-12T13:38:30Z,42.805,6.029,13.2991,4.60001,2470.343,2021-8-12T15:39:48Z
2021-08-12T13:41:33Z,42.805,6.029,13.2991,4.60003,2470.334,2021-8-12T15:42:51Z
2021-08-12T13:44:36Z,42.805,6.029,13.2989,4.60005,2470.32,2021-8-12T15:45:54Z
2021-08-12T13:47:39Z,42.805,6.029,13.2988,4.60001,2470.366,2021-8-12T15:48:57Z
2021-08-12T13:50:42Z,42.805,6.029,13.2987,4.60006,2470.334,2021-8-12T15:52:00Z
2021-08-12T13:53:45Z,42.805,6.029,13.2991,4.60004,2470.334,2021-8-12T15:55:04Z
2021-08-12T13:56:48Z,42.805,6.029,13.2993,4.60003,2470.38,2021-8-12T15:58:07Z
2021-08-12T13:59:52Z,42.805,6.029,13.2988,4.60002,2470.343,2021-8-12T16:01:10Z
2021-08-12T14:02:55Z,42.805,6.029,13.2985,4.60003,2470.32,2021-8-12T16:04:13Z
2021-08-12T14:05:58Z,42.805,6.029,13.2990,4.60001,2470.366,2021-8-12T16:07:16Z
2021-08-12T14:09:01Z,42.805,6.029,13.2989,4.60004,2470.334,2021-8-12T16:10:19Z
2021-08-12T14:12:04Z,42.805,6.029,13.2986,4.60001,2470.343,2021-8-12T16:13:22Z
2021-08-12T14:15:07Z,42.805,6.029,13.2989,4.60003,2470.31,2021-8-12T16:16:25Z
2021-08-12T14:18:10Z,42.805,6.029,13.2990,4.60003,2470.297,2021-8-12T16:19:29Z
2021-08-12T14:21:13Z,42.805,6.029,13.2990,4.60002,2470.297,2021-8-12T16:22:32Z
2021-08-12T14:24:17Z,42.805,6.029,13.2987,4.60003,2470.32,2021-8-12T16:25:35Z
2021-08-12T14:27:20Z,42.805,6.029,13.2988,4.60001,2470.297,2021-8-12T16:28:38Z
2021-08-12T14:30:23Z,42.805,6.029,13.2991,4.60002,2470.297,2021-8-12T16:31:41Z
2021-08-12T14:33:26Z,42.805,6.029,13.2989,4.60003,2470.334,2021-8-12T16:34:44Z
2021-08-12T14:36:29Z,42.805,6.029,13.2991,4.60006,2470.297,2021-8-12T16:37:47Z
2021-08-12T14:39:32Z,42.805,6.029,13.2990,4.60006,2470.31,2021-8-12T16:40:50Z
2021-08-12T14:42:35Z,42.805,6.029,13.2990,4.60003,2470.32,2021-8-12T16:43:54Z
2021-08-12T14:45:38Z,42.805,6.029,13.2990,4.60003,2470.334,2021-8-12T16:46:57Z
2021-08-12T14:48:42Z,42.805,6.029,13.2991,4.60003,2470.297,2021-8-12T16:50:00Z
2021-08-12T14:51:45Z,42.805,6.029,13.2990,4.60003,2470.32,2021-8-12T16:53:03Z
2021-08-12T14:54:48Z,42.805,6.029,13.2990,4.60001,2470.334,2021-8-12T16:56:06Z
2021-08-12T14:57:51Z,42.805,6.029,13.2991,4.60002,2470.297,2021-8-12T16:59:09Z
2021-08-12T15:00:54Z,42.805,6.029,13.2990,4.60002,2470.357,2021-8-12T17:02:12Z
2021-08-12T15:03:57Z,42.805,6.029,13.2990,4.60001,2470.31,2021-8-12T17:05:15Z
2021-08-12T15:07:00Z,42.805,6.029,13.2990,4.60003,2470.297,2021-8-12T17:08:19Z
2021-08-12T15:10:03Z,42.805,6.029,13.2989,4.60001,2470.25,2021-8-12T17:11:22Z
2021-08-12T15:13:07Z,42.805,6.029,13.2989,4.60001,2470.31,2021-8-12T17:14:25Z